TRITON-1

Last updated on Thu Sep 10 2026 00:03:43 GMT+0000 (Coordinated Universal Time)

1 39427U 13066M 26252.63348164 .00002641 00000+0 31760-3 0 9995 2 39427 97.8159 160.4932 0088535 319.8775 39.5922 14.82025376686592
UTC large
Height (km)
Speed (km/s)
/
Latitude / Longitude
Inclination (degrees)
Orbital Period (minutes)
Azimuth
Elevation
Range (km)
Doppler Factor

Next 0 passes for location: London (51.5072 / 0.1276)

No passes found over London.
TRITON-1